Regional Weather Roundup
Issued by NWS Upton, NY

Current Version | Previous Version | Text Only | Print | Product List | Glossary Off
Versions: 1 2 3 4 5 6 7 8 9 10 11 12 13 14 15 16 17 18 19 20 21 22 23 24 25 26 27 28 29 30 31 32 33 34 35 36 37 38 39 40 41 42 43 44 45 46 47 48 49 50
000 ASUS41 KOKX 220909 RWROKX Regional Weather Roundup National Weather Service New York NY 400 AM EST MON JAN 22 2018 Note: "FAIR" indicates few or no clouds below 12,000 feet with no significant weather and/or obstructions to visibility. NYZ071-072-176-178-NJZ106-104-221000- New York City Metro Area CITY SKY/WX TMP DP RH WIND PRES REMARKS Central Park CLOUDY 43 37 79 CALM 30.15F Bronx Bot Gard N/A 39 36 87 W2 30.15F Bronx Lehman C N/A 41 36 81 E3 N/A LaGuardia Arpt CLOUDY 38 34 85 NE8 30.13F WCI 32 Queens College N/A 45 37 76 S5 N/A Kennedy Intl CLOUDY 41 39 93 E5 30.15F Breezy Point N/A 39 N/A N/A SE2 N/A Brooklyn Coll N/A 43 37 81 SE5 N/A Staten Island N/A 43 39 87 S1 N/A Newark/Liberty LGT RAIN 45 39 79 CALM 30.13F Teterboro DRIZZLE 41 36 82 N3 30.13S $$ NYZ177-179-078>081-221000- Long Island New York CITY SKY/WX TMP DP RH WIND PRES REMARKS Jones Beach N/A 39 N/A N/A E3 N/A Wantagh N/A 41 37 87 E2 N/A Matinecock Pt N/A 34 N/A N/A E6 N/A WCI 29 Farmingdale LGT RAIN 40 38 93 E3 30.14F FOG MacArthur/ISP CLOUDY 43 40 89 SE3 30.15F Shirley CLOUDY 40 40 100 SE3 30.16F Mt Sinai Harb N/A N/A N/A N/A CALM N/A Westhampton LGT RAIN 40 37 89 SE3 30.17F East Hampton LGT RAIN 38 37 92 CALM 30.17S Southold N/A 37 36 93 SE2 N/A Montauk N/A 41 38 89 VRB3 30.19F $$ NYZ052-065-067-221000- Hudson Valley CITY SKY/WX TMP DP RH WIND PRES REMARKS White Plains CLOUDY 38 34 85 CALM 30.12F Larchmont Harb N/A 36 N/A N/A NE9 N/A WCI 29 Croton On Huds N/A 36 N/A N/A MISG N/A Somers N/A 36 36 100 N1 N/A Brewster N/A 36 36 100 NE1 N/A Newburgh LGT RAIN 36 36 100 CALM 30.14S Montgomery LGT RAIN 35 34 96 CALM 30.11F FOG Otisville N/A 34 34 100 CALM N/A Warwick N/A 36 36 100 S1 N/A Suffern N/A 37 36 93 N1 N/A Poughkeepsie CLOUDY 34 33 96 CALM 30.13F FOG Albany DRIZZLE 33 30 88 N3 30.16S FOG $$ NJZ001-105-106-008-010-013-015-019>022-104-221000- New Jersey CITY SKY/WX TMP DP RH WIND PRES REMARKS Newark/Liberty LGT RAIN 45 39 79 CALM 30.13F Teterboro DRIZZLE 41 36 82 N3 30.13S Caldwell MOCLDY 38 38 100 CALM 30.14S Somerville CLOUDY 39 39 100 CALM 30.11F Linden CLOUDY 42 38 84 CALM 30.13F Perth Amboy N/A 39 N/A N/A SE3 N/A Sussex CLOUDY 35 35 100 CALM 30.12S FOG Andover N/A 34 34 100 CALM 30.12S Trenton CLOUDY 44 37 76 CALM 30.13S Millville CLOUDY 46 40 79 CALM 30.14R Atlantic City CLOUDY 43 37 79 CALM 30.14R Wrightstown MOCLDY 41 39 90 CALM 30.11F Toms River CLOUDY 41 36 82 CALM 30.15S Belmar LGT RAIN 42 35 76 SE3 30.14F $$ PAZ047>061-062-071-221000- Eastern Pennsylvania CITY SKY/WX TMP DP RH WIND PRES REMARKS Philadelphia CLOUDY 44 35 70 CALM 30.14S Allentown CLOUDY 39 35 86 CALM 30.12F Scranton CLOUDY 37 37 100 CALM 30.09F FOG $$ CTZ002-004>006-009-010-012-RIZ004-006-007-MAZ004-011-015-221000- Southern New England In CT CITY SKY/WX TMP DP RH WIND PRES REMARKS Bradley Intl LGT RAIN 34 32 92 N3 30.16F Hartford MIX PCPN 36 33 89 CALM 30.17F FOG Danbury CLOUDY 37 35 92 NE3 30.15S FOG Wtrbury/Oxford LGT RAIN 36 36 100 SE3 30.14F FOG Norwalk Harbor N/A 36 N/A N/A NE2 N/A Bridgeport LGT RAIN 37 34 89 NE6 30.15F FOG WCI 32 Meriden LGT RAIN 34 33 96 CALM 30.16F FOG New Haven LGT RAIN 38 34 85 CALM 30.16F FOG Chester CLOUDY 37 34 87 CALM 30.16S FOG Groton LGT RAIN 36 34 92 CALM 30.18S FOG Willimantic LGT RAIN 34 30 85 E3 30.18S In RI CITY SKY/WX TMP DP RH WIND PRES REMARKS Providence CLOUDY 36 33 89 CALM 30.20R Block Island LGT RAIN 40 38 93 S5 30.19S Westerly LGT RAIN 35 33 92 CALM 30.19S FOG In MA CITY SKY/WX TMP DP RH WIND PRES REMARKS Boston LGT RAIN 35 32 88 CALM 30.20R Worcester LGT RAIN 35 30 82 SW5 30.15S WCI 31 Westfield LGT RAIN 33 32 96 N3 30.16F Provincetown CLOUDY 38 34 85 MISG 30.21S Nantucket CLOUDY 35 35 100 CALM 30.21S $$ ANZ330-335-338-340-345-350-353-355-221000- Coastal Marine Observations STATION/POSITION TIME SKY/WX TEMP WIND PRES VSBY WAVE AIR SEA DIR/SP/G HT/PER (UTC) (F) (DEG/KT/KT) (MB) (MI) (FT/S) NY Harb Entrance 0750 42 40 180/ 4/ 6 1021.0 1/ 7 20 S Fire Island 0750 44 41 140/ 4/ 6 1021.6 2/ 7 15 E Barnegat Li 0830 43 N/A 2/ 6 Hudson Canyon 0850 51 50 160/ 6/ 8 1021.4 2/ 6 Kings Point 0830 35 34 40/ 3/ 3 1021.7 Execution Rocks NOT AVBL Western LI Sound NOT AVBL Central LI Sound 0815 37 100/ 4/ 6 N/A 0 Robbins Reef 0842 43 180/ 9/ 10 1021.0 $$ >>>>>>>>>>>>>>>>>>>>>>>>>>>> KEY <<<<<<<<<<<<<<<<<<<<<<<<<<< > < > SKY/WX - Sky Condition/Present Weather < > TMP - Temperature in Fahrenheit < > DP - Dew Point in Fahrenheit < > RH - Relative Humidity in Percent < > WIND - Direction (from) and Speed in MPH < > PRES - Mean Sea Level Pressure (inches of Hg) < > WCI - Wind Chill Index < > VSB - Visibility in Miles < > HX - Heat Index < > TC - Temperature in Celsius < > VRB - Varibale Wind Direction < > < >>>>>>>>>>>>>>>>>>>>>>>>>>>> KEY <<<<<<<<<<<<<<<<<<<<<<<<<<<

USA.gov is the U.S. government's official web portal to all federal, state and local government web resources and services.